User: anonymous
Location: Mentone
(34.5413°N, 85.5351°W)
Time: 23:16:20
(UTC-05:00)
Language:

Cosmos 2026 Rocket - Orbit

View from above orbital plane
View from above orbital plane
View from above satellite
View from above satellite

Ground track
Ground track

The orbit data is extracted from the following two-line orbital elements,

1 20046U 89042B   14241.40490389  .00000045  00000-0  29364-4 0  3489
2 20046 082.9414 345.3141 0042952 057.8015 345.3431 13.77973351268398
Epoch (UTC): 29 August 2014 09:43:03
Eccentricity: 0.0042952
inclination: 82.9414°
perigee height: 939 km
apogee height: 1002 km
right ascension of ascending node: 345.3141°
argument of perigee: 57.8015°
revolutions per day: 13.77973351
mean anomaly at epoch: 345.3431°
orbit number at epoch: 26839

The dashed part of the orbit path shows where the satellite is in the earth's shadow,  

DLR